Location: Memmingen
(47.9830°N, 10.1733°E)
Time: 18:02:38
(UTC+01:00)

ISS - Visible Passes

Search period start: 20 November 2017 00:00
Search period end: 30 November 2017 00:00
Orbit: 402 x 407 km, 51.6° (Epoch: 21 November)

Date Brightness Start Highest point End Pass type
(mag) Time Alt. Az. Time Alt. Az. Time Alt. Az.
27 Nov -1.1 19:06:59 10° SW 19:07:38 14° SSW 19:07:38 14° SSW visible
28 Nov -2.2 18:15:09 10° SSW 18:17:35 22° SSE 18:17:35 22° SSE visible
29 Nov -1.6 17:23:52 10° SSE 17:25:35 14° SE 17:27:20 10° ESE visible
29 Nov -2.0 18:58:19 10° WSW 19:00:07 30° SW 19:00:07 30° SW visible
